Simultaneous Nadir Overpasses (SNOs) Predictions

Prediction of SNOs between GOES-15 and NOAA-20 Satellite Orbit:

Table of predicted SNOs for the next 14.0 days since TLE Epoch: 3/6/2020
Index Date Time (GOES-15) GOES-15 Lat,Lon NOAA-20 Lat,Lon Distance(km) Time Diff (sec)
1 03/07/2020 22:15:17 0.34,-128.42 -0.64,-132.73 492.47 80
2 03/08/2020 21:59:13 0.34,-128.41 0.35,-128.20 23.21 80
3 03/11/2020 10:02:18 -0.34,-128.36 -0.22,-128.94 66.10 80
4 03/12/2020 09:40:53 -0.34,-128.35 -1.21,-124.41 448.72 80
5 03/13/2020 22:02:50 0.33,-128.34 0.05,-129.72 155.76 80
6 03/14/2020 21:46:46 0.33,-128.33 1.05,-125.18 359.06 80
7 03/16/2020 10:08:34 -0.32,-128.29 0.14,-130.45 245.72 80
8 03/17/2020 09:47:10 -0.32,-128.27 -0.86,-125.91 268.48 80
9 03/18/2020 22:09:06 0.31,-128.25 -0.36,-131.21 337.13 80
10 03/19/2020 21:53:02 0.31,-128.23 0.64,-126.67 177.24 80




NCC Satellite Simultaneous Nadir Overpasses (SNOs) Prediction Service
